Location: Kuffner-Sternwarte
(48.2130°N, 16.2960°E)
Time: 00:51:49
(UTC+02:00)

COROT - Pass Details

Date: 15 June 2018
Orbit: 601 x 888 km, 90.0° (Epoch: 18 September)

Event Time Altitude Azimuth Distance (km) Brightness Sun altitude
Rises 22:03:23 0° 347° (NNW) 3,440 10.7 -8.8°
Reaches altitude 10° 22:06:50 10° 325° (NW) 2,532 10.4 -9.1°
Maximum altitude 22:09:52 15° 292° (WNW) 2,217 9.4 -9.4°
Drops below altitude 10° 22:12:55 10° 260° (W) 2,553 9.1 -9.7°
Sets 22:16:27 0° 238° (WSW) 3,487 9.5 -10.1°
